Tracking 35334 objects as of 12-Sep-2026
HD Live streaming from Space Station
objects crossing your sky now

COSMOS 986


COSMOS 986 is no longer on orbit


NORAD ID: 10607
Int'l Code: 1978-010A
Launch date: January 24, 1978
Source: Commonwealth of Independent States (former USSR) (CIS)
Launch site: TYURATAM MISSILE AND SPACE COMPLEX (TTMTR)
Decay date: 1978-02-07
Your satellite tracking list
Your tracking list is empty




NASA's NSSDC Master Catalog

Two Line Element Set (TLE):
1 10607U 78010  A 78037.35905664  .00454054 +00000-0 +00000-0 0  9995
2 10607 065.0097 259.0235 0084314 058.4110 302.7977 16.19894929002092
Source of the keplerian elements: AFSPC